STARLINK-1799, 46699

Orbit data source: Space-Track

STARLINK-1799, 46699 is a payload satellite owned by SpaceX/Seattle (US) in LEO that was launched on Sun, 18 Oct 2020 UTC via an FALCON 9 launch vehicle from the Air Force Eastern Test Range (AFETR). Payload-class satellites include a variety of spacecraft equipped with specific instruments for various scientific and technological missions. These include communications satellites like Starlink; space stations such as the ISS; scientific satellites like the Hubble; Earth observation satellites from companies like Planet Labs, Umbra, and HawkEye 360; GPS; miniature CubeSats for education and research; and military/defense satellites.

Loading next visibility...
Identifier
46699, 2020-073AF
Orbit
LEO
Last TLE update
21 hours ago
Origin
Manufacturer
SpaceX/Seattle
Mission
Operational Commercial Communications
Bus & Motor
STARLINK, Unknown motor
Mass
260 kg wet, ~248 kg dry
Launch date (UTC)
2020-10-18 (5 years ago)
Launch vehicle
FALCON 9
Launch site
Air Force Eastern Test Range (AFETR)
Object type
Payload
Rocket body
Debris
Shape & HBR
Box + 1 Pan, 8.86 m
Radar Cross Section
13.562 m², Large (>1 m²)

Expand to show TLE details & history

TLE from 21 hours ago
0 STARLINK-1799
1 46699U 20073AF  25128.39538915  .00000220  00000-0  33697-4 0  9993
2 46699  53.0546 172.1390 0001505  63.3364 296.7779 15.06396204251111
Epoch: 2025-05-08T09:29Z
Definitive object data (Epoch: 2025-05-08T09:29:21.622Z)
Latitude
-0.00002°
Longitude
163.33239°
Altitude
547.633 km
Speed
7.59 km/s
True Right ascension
11h 28m 33s
True Declination
0° 00' 00"
Sunlit
Object was in full shadow at TLE epoch
Visualization TLE readout
Latitude
26.44169°
Longitude
-42.498°
Altitude
548.199 km
Speed
7.592 km/s
Apparent Right ascension
00h 00m 11s
Apparent Declination
-6° 37' 32"
Sunlit
Object is in daylight
Visualization observer readout
Local Sidereal Time
14:59:02
Azimuth
62.46° ENE
Elevation
-37.983°
Doppler factor
1
Orbital elements
Apogee altitude
548.536 km
Perigee altitude
546.452 km
Semi-major axis
6,925.631 km
Eccentricity
0.0001505
Inclination
53.0546°
RAAN
172.139°
Arg. of periapsis
63.3364°
True anomaly
296.7625°
Mean anomaly
296.7779°
Eccentric anomaly
296.7702°
Mean motion
3.76577 °/min
BSTAR
0.000033697
Orbital period
95.6 mins
Loading maneuver chart data...
Loading SW <> Apogee altitude chart data...
Loading historical data...
Loading historical data...
Loading historical data...
Loading historical data...
Loading historical data...
Loading historical data...
Loading historical data...

STARLINK-1799 Visibility forecast

Observer location: undefined°, undefined°

Span
Click to sort rows by Start time (UTC) header in descending order
Start Az.
Max El. time (UTC)
Max El. Az.
Max El.
End time (UTC)
End Az.
4 mins2025-05-09 08:06:08.937Z320.424° NNW2025-05-09 08:08:08.937Z352.524° N14.399°2025-05-09 08:10:08.937Z22.534° NE
5 mins2025-05-09 11:27:08.937Z337.126° NNW2025-05-09 11:29:08.937Z25.244° NE30.283°2025-05-09 11:32:08.937Z91.869° ESE
6 mins2025-05-09 13:06:08.937Z285.936° WNW2025-05-09 13:09:08.937Z215.913° SW29.574°2025-05-09 13:12:08.937Z163.978° S
6 mins2025-05-10 04:39:08.937Z195.877° SSW2025-05-10 04:42:08.937Z113.307° SE32.825°2025-05-10 04:45:08.937Z64.446° ENE
5 mins2025-05-10 06:19:08.937Z281.614° WNW2025-05-10 06:21:08.937Z327.657° NNW27.789°2025-05-10 06:24:08.937Z29.213° NE
|